When you browse on this site, cookies collect data to enhance your experience and personalize the content and advertising you see.
Visit our Privacy Policy to learn more. By continuing to use the site, you agree to this use of cookies and data.
  • In Latvia
  • List of Countries
  • For 7 days
  • Water Temperature
  • Weather Map
  • Weather Widgets
  • user-avatar
    Login

    Hourly Weather Sankt Polten

    Today, 22 August, Thursday

    Time Temperature Precipitation Wind Pressure Humidity
    00:00 +14°C° 0 mm 1 mps 743 mmHg 91%
    01:00 +14°C° 0 mm 1 mps 743 mmHg 91%
    02:00 +14°C° 0 mm 1 mps 743 mmHg 92%
    03:00 +14°C° 0 mm 1 mps 742 mmHg 93%
    04:00 +14°C° 0 mm 1 mps 742 mmHg 94%
    05:00 +15°C° 0.1 mm 1 mps 742 mmHg 91%
    06:00 +15°C° 0.1 mm 1 mps 742 mmHg 89%
    07:00 +16°C° 0.1 mm 1 mps 743 mmHg 86%
    08:00 +19°C° 0 mm 1 mps 742 mmHg 81%
    09:00 +20°C° 0 mm 1 mps 742 mmHg 75%
    10:00 +21°C° 0 mm 1 mps 742 mmHg 70%
    11:00 +23°C° 0 mm 2 mps 742 mmHg 66%
    12:00 +24°C° 0 mm 2 mps 742 mmHg 62%
    13:00 +25°C° 0 mm 2 mps 742 mmHg 57%
    14:00 +25°C° 0 mm 2 mps 742 mmHg 58%
    15:00 +25°C° 0 mm 2 mps 741 mmHg 59%
    16:00 +25°C° 0 mm 2 mps 741 mmHg 60%
    17:00 +23°C° 0 mm 2 mps 741 mmHg 67%
    18:00 +22°C° 0 mm 1 mps 741 mmHg 74%
    19:00 +20°C° 0 mm 1 mps 741 mmHg 81%
    20:00 +19°C° 0 mm 1 mps 741 mmHg 84%
    21:00 +19°C° 0 mm 1 mps 742 mmHg 86%
    22:00 +18°C° 0 mm 1 mps 742 mmHg 89%
    23:00 +18°C° 0 mm 1 mps 742 mmHg 90%

    Tomorrow, 23 August, Friday

    Time Temperature Precipitation Wind Pressure Humidity
    00:00 +18°C° 0 mm 1 mps 742 mmHg 91%
    01:00 +16°C° 0 mm 1 mps 742 mmHg 92%
    02:00 +15°C° 0 mm 0 mps 742 mmHg 93%
    03:00 +15°C° 0 mm 0 mps 742 mmHg 93%
    04:00 +15°C° 0 mm 0 mps 742 mmHg 94%
    05:00 +18°C° 0 mm 1 mps 742 mmHg 91%
    06:00 +18°C° 0 mm 1 mps 742 mmHg 88%
    07:00 +19°C° 0 mm 1 mps 742 mmHg 85%
    08:00 +21°C° 0 mm 1 mps 742 mmHg 79%
    09:00 +23°C° 0 mm 2 mps 742 mmHg 72%
    10:00 +25°C° 0 mm 2 mps 742 mmHg 66%
    11:00 +25°C° 0.1 mm 2 mps 742 mmHg 65%
    12:00 +26°C° 0.1 mm 2 mps 741 mmHg 64%
    13:00 +27°C° 0.1 mm 3 mps 741 mmHg 63%
    14:00 +27°C° 0.1 mm 3 mps 741 mmHg 64%
    15:00 +27°C° 0.1 mm 2 mps 740 mmHg 64%
    16:00 +27°C° 0.1 mm 2 mps 740 mmHg 65%
    17:00 +25°C° 0.6 mm 2 mps 740 mmHg 73%
    18:00 +24°C° 0.6 mm 1 mps 740 mmHg 81%
    19:00 +22°C° 0.6 mm 1 mps 740 mmHg 89%
    20:00 +21°C° 0.7 mm 1 mps 740 mmHg 91%
    21:00 +21°C° 0.7 mm 1 mps 740 mmHg 92%
    22:00 +20°C° 0.7 mm 1 mps 740 mmHg 94%
    23:00 +20°C° 0.1 mm 1 mps 740 mmHg 94%

    Day after tomorrow, 24 August, Saturday

    Time Temperature Precipitation Wind Pressure Humidity
    00:00 +20°C° 0.1 mm 1 mps 740 mmHg 94%
    01:00 +20°C° 0.1 mm 1 mps 740 mmHg 94%
    02:00 +20°C° 0 mm 1 mps 739 mmHg 94%
    03:00 +19°C° 0 mm 1 mps 739 mmHg 95%
    04:00 +19°C° 0 mm 1 mps 739 mmHg 95%
    05:00 +18°C° 0 mm 0 mps 739 mmHg 94%
    06:00 +19°C° 0 mm 0 mps 739 mmHg 93%
    07:00 +19°C° 0 mm 0 mps 739 mmHg 91%
    08:00 +21°C° 0 mm 0 mps 739 mmHg 85%
    09:00 +25°C° 0 mm 1 mps 739 mmHg 78%
    10:00 +27°C° 0 mm 1 mps 739 mmHg 71%
    11:00 +28°C° 0.2 mm 1 mps 739 mmHg 67%
    12:00 +29°C° 0.2 mm 1 mps 739 mmHg 63%
    13:00 +30°C° 0.2 mm 2 mps 739 mmHg 60%
    14:00 +30°C° 0.5 mm 1 mps 738 mmHg 61%
    15:00 +29°C° 0.5 mm 1 mps 738 mmHg 62%
    16:00 +29°C° 0.5 mm 1 mps 738 mmHg 63%
    17:00 +28°C° 0 mm 1 mps 738 mmHg 67%
    18:00 +26°C° 0 mm 1 mps 737 mmHg 71%
    19:00 +24°C° 0 mm 1 mps 737 mmHg 75%
    20:00 +23°C° 0 mm 1 mps 737 mmHg 77%
    21:00 +22°C° 0 mm 1 mps 738 mmHg 79%
    22:00 +22°C° 0 mm 1 mps 738 mmHg 80%
    23:00 +21°C° 0.1 mm 1 mps 738 mmHg 82%

    25 August, Sunday

    Time Temperature Precipitation Wind Pressure Humidity
    00:00 +21°C° 0.1 mm 1 mps 738 mmHg 84%
    01:00 +20°C° 0.1 mm 1 mps 737 mmHg 86%
    02:00 +20°C° 0 mm 1 mps 737 mmHg 87%
    03:00 +18°C° 0 mm 0 mps 737 mmHg 88%
    04:00 +17°C° 0 mm 0 mps 737 mmHg 88%
    05:00 +18°C° 0.1 mm 0 mps 737 mmHg 86%
    06:00 +19°C° 0.1 mm 0 mps 738 mmHg 85%
    07:00 +20°C° 0.1 mm 0 mps 738 mmHg 83%
    08:00 +22°C° 0 mm 0 mps 738 mmHg 76%
    09:00 +26°C° 0 mm 1 mps 738 mmHg 69%
    10:00 +28°C° 0 mm 1 mps 738 mmHg 62%
    11:00 +29°C° 0.1 mm 1 mps 738 mmHg 57%
    12:00 +30°C° 0.1 mm 2 mps 738 mmHg 53%
    13:00 +31°C° 0.1 mm 2 mps 738 mmHg 49%
    14:00 +31°C° 0 mm 2 mps 738 mmHg 48%
    15:00 +31°C° 0 mm 2 mps 738 mmHg 48%
    16:00 +31°C° 0 mm 3 mps 737 mmHg 47%
    17:00 +29°C° 0.1 mm 2 mps 737 mmHg 55%
    18:00 +27°C° 0.1 mm 1 mps 737 mmHg 64%
    19:00 +25°C° 0.1 mm 1 mps 737 mmHg 72%
    20:00 +24°C° 0.5 mm 1 mps 737 mmHg 75%
    21:00 +23°C° 0.5 mm 1 mps 738 mmHg 78%
    22:00 +22°C° 0.5 mm 1 mps 738 mmHg 81%
    23:00 +22°C° 0.1 mm 1 mps 738 mmHg 83%

    26 August, Monday

    Time Temperature Precipitation Wind Pressure Humidity
    00:00 +21°C° 0.1 mm 1 mps 738 mmHg 84%
    01:00 +19°C° 0.1 mm 0 mps 738 mmHg 85%
    02:00 +19°C° 0.1 mm 0 mps 738 mmHg 86%
    03:00 +20°C° 0.1 mm 1 mps 738 mmHg 87%
    04:00 +20°C° 0.1 mm 1 mps 738 mmHg 88%
    05:00 +21°C° 0.1 mm 1 mps 738 mmHg 86%
    06:00 +22°C° 0.1 mm 1 mps 739 mmHg 84%
    07:00 +22°C° 0.1 mm 1 mps 739 mmHg 83%
    08:00 +24°C° 0.2 mm 1 mps 739 mmHg 77%
    09:00 +26°C° 0.2 mm 1 mps 739 mmHg 71%
    10:00 +28°C° 0.2 mm 1 mps 739 mmHg 65%
    11:00 +29°C° 0.3 mm 1 mps 739 mmHg 61%
    12:00 +30°C° 0.3 mm 1 mps 739 mmHg 58%
    13:00 +31°C° 0.3 mm 1 mps 739 mmHg 54%
    14:00 +31°C° 0.3 mm 1 mps 739 mmHg 54%
    15:00 +31°C° 0.3 mm 1 mps 739 mmHg 54%
    16:00 +29°C° 0.3 mm 0 mps 739 mmHg 55%
    17:00 +29°C° 0.1 mm 1 mps 739 mmHg 61%
    18:00 +27°C° 0.1 mm 1 mps 738 mmHg 68%
    19:00 +25°C° 0.1 mm 1 mps 738 mmHg 75%
    20:00 +24°C° 0.1 mm 1 mps 739 mmHg 76%
    21:00 +23°C° 0.1 mm 1 mps 739 mmHg 77%
    22:00 +22°C° 0.1 mm 1 mps 739 mmHg 78%
    23:00 +22°C° 0.1 mm 1 mps 739 mmHg 79%

    27 August, Tuesday

    Time Temperature Precipitation Wind Pressure Humidity
    00:00 +22°C° 0.1 mm 1 mps 739 mmHg 80%
    01:00 +21°C° 0.1 mm 1 mps 739 mmHg 81%
    02:00 +21°C° 0 mm 1 mps 739 mmHg 82%
    03:00 +21°C° 0 mm 1 mps 739 mmHg 83%
    04:00 +18°C° 0 mm 0 mps 739 mmHg 84%
    05:00 +19°C° 0 mm 0 mps 739 mmHg 83%
    06:00 +20°C° 0 mm 0 mps 739 mmHg 81%
    07:00 +21°C° 0 mm 0 mps 739 mmHg 80%
    08:00 +25°C° 0 mm 1 mps 739 mmHg 72%
    09:00 +27°C° 0 mm 1 mps 739 mmHg 63%
    10:00 +29°C° 0 mm 1 mps 739 mmHg 55%
    11:00 +31°C° 0 mm 2 mps 739 mmHg 50%
    12:00 +32°C° 0 mm 2 mps 738 mmHg 45%
    13:00 +34°C° 0 mm 3 mps 738 mmHg 40%
    14:00 +34°C° 0 mm 3 mps 738 mmHg 41%
    15:00 +33°C° 0 mm 3 mps 737 mmHg 42%
    16:00 +33°C° 0 mm 3 mps 737 mmHg 43%
    17:00 +30°C° 0 mm 3 mps 737 mmHg 49%
    18:00 +28°C° 0 mm 2 mps 736 mmHg 56%
    19:00 +25°C° 0 mm 2 mps 736 mmHg 63%
    20:00 +25°C° 0 mm 2 mps 736 mmHg 64%
    21:00 +24°C° 0 mm 2 mps 736 mmHg 65%
    22:00 +23°C° 0 mm 2 mps 736 mmHg 66%
    23:00 +23°C° 0 mm 2 mps 736 mmHg 67%
    Show more